Time,TemperatureF,DewpointF,PressureIn,WindDirection,WindDirectionDegrees,WindSpeedMPH,WindSpeedGustMPH,Humidity,HourlyPrecipIn,Conditions,Clouds,dailyrainin,SoftwareType,DateUTC
2013-01-02 00:05:00,30.4,18.9,29.98,NNW,339,8.0,10.0,62,0.00,,,0.00,Wunderground v.1.15,2013-01-02 05:05:00,
2013-01-02 00:10:00,30.3,18.8,29.98,NNW,339,8.0,8.0,62,0.00,,,0.00,Wunderground v.1.15,2013-01-02 05:10:00,
2013-01-02 00:15:00,30.2,18.7,29.98,NNW,328,8.0,8.0,62,0.00,,,0.00,Wunderground v.1.15,2013-01-02 05:15:00,
2013-01-02 00:20:00,30.2,19.1,29.97,NNE,18,8.0,8.0,63,0.00,,,0.00,Wunderground v.1.15,2013-01-02 05:20:00,
2013-01-02 00:25:00,30.0,17.4,29.97,NNW,335,8.0,10.0,59,0.00,,,0.00,Wunderground v.1.15,2013-01-02 05:25:00,
2013-01-02 00:30:00,29.8,17.6,29.98,NW,322,8.0,8.0,60,0.00,,,0.00,Wunderground v.1.15,2013-01-02 05:30:00,
2013-01-02 00:40:00,29.6,17.4,29.98,NNW,340,5.0,9.0,60,0.00,,,0.00,Wunderground v.1.15,2013-01-02 05:40:00,
2013-01-02 00:45:00,29.7,18.3,29.97,North,4,7.0,9.0,62,0.00,,,0.00,Wunderground v.1.15,2013-01-02 05:45:00,
2013-01-02 00:55:00,29.5,17.3,29.97,NW,321,8.0,11.0,60,0.00,,,0.00,Wunderground v.1.15,2013-01-02 05:55:00,
2013-01-02 01:00:00,29.4,17.2,29.97,North,5,6.0,6.0,60,0.00,,,0.00,Wunderground v.1.15,2013-01-02 06:00:00,
2013-01-02 01:05:00,29.3,16.7,29.97,NNW,330,6.0,6.0,59,0.00,,,0.00,Wunderground v.1.15,2013-01-02 06:05:00,
2013-01-02 01:10:00,29.1,16.1,29.97,NNW,335,5.0,5.0,58,0.00,,,0.00,Wunderground v.1.15,2013-01-02 06:10:00,
2013-01-02 01:15:00,29.0,16.1,29.97,NW,326,5.0,6.0,58,0.00,,,0.00,Wunderground v.1.15,2013-01-02 06:15:00,
2013-01-02 01:20:00,28.9,17.1,29.97,NW,326,5.0,8.0,61,0.00,,,0.00,Wunderground v.1.15,2013-01-02 06:20:00,
2013-01-02 01:25:00,28.8,16.3,29.97,NNW,329,5.0,8.0,59,0.00,,,0.00,Wunderground v.1.15,2013-01-02 06:25:00,
2013-01-02 01:30:00,28.7,16.2,29.96,NNW,338,7.0,7.0,59,0.00,,,0.00,Wunderground v.1.15,2013-01-02 06:30:00,
2013-01-02 01:35:00,28.6,16.1,29.97,NW,323,7.0,13.0,59,0.00,,,0.00,Wunderground v.1.15,2013-01-02 06:35:00,
2013-01-02 01:45:00,28.4,14.7,29.98,NNW,328,9.0,9.0,56,0.00,,,0.00,Wunderground v.1.15,2013-01-02 06:45:00,
2013-01-02 01:50:00,28.3,15.8,29.97,NW,316,8.0,8.0,59,0.00,,,0.00,Wunderground v.1.15,2013-01-02 06:50:00,
2013-01-02 01:55:00,28.2,15.7,29.97,NW,326,7.0,9.0,59,0.00,,,0.00,Wunderground v.1.15,2013-01-02 06:55:00,
2013-01-02 02:00:00,28.3,15.8,29.98,North,354,7.0,10.0,59,0.00,,,0.00,Wunderground v.1.15,2013-01-02 07:00:00,
2013-01-02 02:10:00,28.1,14.8,29.98,NW,324,9.0,14.0,57,0.00,,,0.00,Wunderground v.1.15,2013-01-02 07:10:00,
2013-01-02 02:20:00,28.0,15.1,29.98,NNW,332,9.0,9.0,58,0.00,,,0.00,Wunderground v.1.15,2013-01-02 07:20:00,
2013-01-02 02:25:00,27.9,14.6,29.98,NNW,335,9.0,9.0,57,0.00,,,0.00,Wunderground v.1.15,2013-01-02 07:25:00,
2013-01-02 02:30:00,28.0,15.5,29.99,NNE,15,9.0,9.0,59,0.00,,,0.00,Wunderground v.1.15,2013-01-02 07:30:00,
2013-01-02 02:35:00,28.0,16.3,29.98,North,349,8.0,9.0,61,0.00,,,0.00,Wunderground v.1.15,2013-01-02 07:35:00,
2013-01-02 02:40:00,27.9,15.4,29.99,North,352,9.0,10.0,59,0.00,,,0.00,Wunderground v.1.15,2013-01-02 07:40:00,
2013-01-02 02:45:00,27.8,14.9,29.99,NNW,337,9.0,10.0,58,0.00,,,0.00,Wunderground v.1.15,2013-01-02 07:45:00,
2013-01-02 02:55:00,27.7,15.6,29.99,NNW,335,7.0,8.0,60,0.00,,,0.00,Wunderground v.1.15,2013-01-02 07:55:00,
2013-01-02 03:00:00,27.7,15.6,29.98,NNW,328,7.0,7.0,60,0.00,,,0.00,Wunderground v.1.15,2013-01-02 08:00:00,
2013-01-02 03:05:00,27.8,16.5,29.98,NNW,330,6.0,7.0,62,0.00,,,0.00,Wunderground v.1.15,2013-01-02 08:05:00,
2013-01-02 03:10:00,27.6,15.5,29.99,NW,316,6.0,6.0,60,0.00,,,0.00,Wunderground v.1.15,2013-01-02 08:10:00,
2013-01-02 03:15:00,27.5,15.8,29.99,NNW,330,7.0,10.0,61,0.00,,,0.00,Wunderground v.1.15,2013-01-02 08:15:00,
2013-01-02 03:25:00,27.4,15.7,29.98,NW,324,7.0,8.0,61,0.00,,,0.00,Wunderground v.1.15,2013-01-02 08:25:00,
2013-01-02 03:30:00,27.3,15.2,29.98,NW,319,6.0,8.0,60,0.00,,,0.00,Wunderground v.1.15,2013-01-02 08:30:00,
2013-01-02 03:35:00,27.2,15.5,29.99,NW,326,7.0,8.0,61,0.00,,,0.00,Wunderground v.1.15,2013-01-02 08:35:00,
2013-01-02 03:45:00,27.2,15.9,29.98,North,353,6.0,7.0,62,0.00,,,0.00,Wunderground v.1.15,2013-01-02 08:45:00,
2013-01-02 03:50:00,27.1,15.8,29.99,NW,321,6.0,6.0,62,0.00,,,0.00,Wunderground v.1.15,2013-01-02 08:50:00,
2013-01-02 04:00:00,27.1,16.5,29.99,NNW,340,6.0,6.0,64,0.00,,,0.00,Wunderground v.1.15,2013-01-02 09:00:00,
2013-01-02 04:05:00,27.1,16.5,29.98,NNW,342,5.0,6.0,64,0.00,,,0.00,Wunderground v.1.15,2013-01-02 09:05:00,
2013-01-02 04:10:00,27.0,16.4,29.99,NNE,20,4.0,5.0,64,0.00,,,0.00,Wunderground v.1.15,2013-01-02 09:10:00,
2013-01-02 04:15:00,26.9,16.3,29.99,NNE,13,4.0,9.0,64,0.00,,,0.00,Wunderground v.1.15,2013-01-02 09:15:00,
2013-01-02 04:20:00,26.8,16.2,29.99,NNW,342,6.0,6.0,64,0.00,,,0.00,Wunderground v.1.15,2013-01-02 09:20:00,
2013-01-02 04:30:00,26.7,16.5,29.99,NNW,346,6.0,8.0,65,0.00,,,0.00,Wunderground v.1.15,2013-01-02 09:30:00,
2013-01-02 04:35:00,26.5,16.3,29.99,NNW,333,7.0,8.0,65,0.00,,,0.00,Wunderground v.1.15,2013-01-02 09:35:00,
2013-01-02 04:45:00,26.4,15.9,29.98,NNW,340,7.0,7.0,64,0.00,,,0.00,Wunderground v.1.15,2013-01-02 09:45:00,
2013-01-02 04:50:00,26.4,16.6,29.99,NE,39,7.0,7.0,66,0.00,,,0.00,Wunderground v.1.15,2013-01-02 09:50:00,
2013-01-02 04:55:00,26.1,15.9,29.99,North,10,6.0,9.0,65,0.00,,,0.00,Wunderground v.1.15,2013-01-02 09:55:00,
2013-01-02 05:00:00,26.0,15.5,29.99,North,354,7.0,7.0,64,0.00,,,0.00,Wunderground v.1.15,2013-01-02 10:00:00,
2013-01-02 05:10:00,25.8,15.3,29.99,NNW,329,8.0,8.0,64,0.00,,,0.00,Wunderground v.1.15,2013-01-02 10:10:00,
2013-01-02 05:20:00,25.9,15.7,29.99,North,360,8.0,8.0,65,0.00,,,0.00,Wunderground v.1.15,2013-01-02 10:20:00,
2013-01-02 05:25:00,25.7,15.2,29.99,NNW,348,8.0,8.0,64,0.00,,,0.00,Wunderground v.1.15,2013-01-02 10:25:00,
2013-01-02 05:30:00,25.7,15.2,29.99,North,353,8.0,8.0,64,0.00,,,0.00,Wunderground v.1.15,2013-01-02 10:30:00,
2013-01-02 05:35:00,25.7,15.2,30.00,NNW,344,7.0,8.0,64,0.00,,,0.00,Wunderground v.1.15,2013-01-02 10:35:00,
2013-01-02 05:40:00,25.6,15.1,30.00,NW,319,8.0,8.0,64,0.00,,,0.00,Wunderground v.1.15,2013-01-02 10:40:00,
2013-01-02 05:50:00,25.5,15.0,30.00,NNW,328,8.0,8.0,64,0.00,,,0.00,Wunderground v.1.15,2013-01-02 10:50:00,
2013-01-02 05:55:00,25.5,15.0,30.01,NW,316,7.0,8.0,64,0.00,,,0.00,Wunderground v.1.15,2013-01-02 10:55:00,
2013-01-02 06:05:00,25.5,14.6,30.00,NNW,328,8.0,9.0,63,0.00,,,0.00,Wunderground v.1.15,2013-01-02 11:05:00,
2013-01-02 06:10:00,25.6,14.7,30.01,WNW,302,8.0,8.0,63,0.00,,,0.00,Wunderground v.1.15,2013-01-02 11:10:00,
2013-01-02 06:15:00,25.5,15.0,30.01,NNW,330,7.0,9.0,64,0.00,,,0.00,Wunderground v.1.15,2013-01-02 11:15:00,
2013-01-02 06:25:00,25.6,14.4,30.01,NNW,343,8.0,8.0,62,0.00,,,0.00,Wunderground v.1.15,2013-01-02 11:25:00,
2013-01-02 06:30:00,25.5,13.9,30.00,NNW,338,8.0,8.0,61,0.00,,,0.00,Wunderground v.1.15,2013-01-02 11:30:00,
2013-01-02 06:35:00,25.6,14.7,30.01,NW,315,8.0,8.0,63,0.00,,,0.00,Wunderground v.1.15,2013-01-02 11:35:00,
2013-01-02 06:40:00,25.6,14.4,30.00,NNW,342,7.0,7.0,62,0.00,,,0.00,Wunderground v.1.15,2013-01-02 11:40:00,
2013-01-02 06:45:00,25.5,14.3,30.00,NW,319,7.0,9.0,62,0.00,,,0.00,Wunderground v.1.15,2013-01-02 11:45:00,
2013-01-02 06:55:00,25.4,13.8,30.01,NW,316,7.0,12.0,61,0.00,,,0.00,Wunderground v.1.15,2013-01-02 11:55:00,
2013-01-02 07:00:00,25.4,14.2,30.00,NNW,330,7.0,7.0,62,0.00,,,0.00,Wunderground v.1.15,2013-01-02 12:00:00,
2013-01-02 07:05:00,25.4,14.2,30.01,NNW,343,7.0,8.0,62,0.00,,,0.00,Wunderground v.1.15,2013-01-02 12:05:00,
2013-01-02 07:10:00,25.4,14.5,30.02,NNW,327,7.0,7.0,63,0.00,,,0.00,Wunderground v.1.15,2013-01-02 12:10:00,
2013-01-02 07:15:00,25.4,14.2,30.02,NW,319,6.0,7.0,62,0.00,,,0.00,Wunderground v.1.15,2013-01-02 12:15:00,
2013-01-02 07:20:00,25.3,13.7,30.02,NW,311,6.0,6.0,61,0.00,,,0.00,Wunderground v.1.15,2013-01-02 12:20:00,
2013-01-02 07:30:00,25.3,14.1,30.02,North,358,4.0,4.0,62,0.00,,,0.00,Wunderground v.1.15,2013-01-02 12:30:00,
2013-01-02 07:35:00,25.3,14.1,30.02,NNW,341,4.0,6.0,62,0.00,,,0.00,Wunderground v.1.15,2013-01-02 12:35:00,
2013-01-02 07:40:00,25.3,14.1,30.02,NNW,337,4.0,4.0,62,0.00,,,0.00,Wunderground v.1.15,2013-01-02 12:40:00,
2013-01-02 07:45:00,25.2,14.0,30.03,NW,304,5.0,5.0,62,0.00,,,0.00,Wunderground v.1.15,2013-01-02 12:45:00,
2013-01-02 07:50:00,25.2,14.0,30.03,NW,308,5.0,5.0,62,0.00,,,0.00,Wunderground v.1.15,2013-01-02 12:50:00,
2013-01-02 08:00:00,25.2,14.0,30.03,NW,305,4.0,4.0,62,0.00,,,0.00,Wunderground v.1.15,2013-01-02 13:00:00,
2013-01-02 08:05:00,25.2,14.4,30.03,WNW,302,3.0,4.0,63,0.00,,,0.00,Wunderground v.1.15,2013-01-02 13:05:00,
2013-01-02 08:10:00,25.4,14.9,30.03,NW,317,3.0,4.0,64,0.00,,,0.00,Wunderground v.1.15,2013-01-02 13:10:00,
2013-01-02 08:20:00,25.3,14.5,30.03,WNW,288,3.0,3.0,63,0.00,,,0.00,Wunderground v.1.15,2013-01-02 13:20:00,
2013-01-02 08:25:00,25.4,14.2,30.04,NW,309,3.0,5.0,62,0.00,,,0.00,Wunderground v.1.15,2013-01-02 13:25:00,
2013-01-02 08:35:00,25.4,14.5,30.04,NW,326,4.0,5.0,63,0.00,,,0.00,Wunderground v.1.15,2013-01-02 13:35:00,
2013-01-02 08:40:00,25.4,14.2,30.05,NNW,329,5.0,5.0,62,0.00,,,0.00,Wunderground v.1.15,2013-01-02 13:40:00,
2013-01-02 08:50:00,25.5,13.9,30.06,NNW,338,5.0,6.0,61,0.00,,,0.00,Wunderground v.1.15,2013-01-02 13:50:00,
2013-01-02 08:55:00,25.6,14.4,30.06,NW,308,4.0,6.0,62,0.00,,,0.00,Wunderground v.1.15,2013-01-02 13:55:00,
2013-01-02 09:00:00,25.7,14.8,30.06,NNW,328,3.0,3.0,63,0.00,,,0.00,Wunderground v.1.15,2013-01-02 14:00:00,
2013-01-02 09:05:00,25.9,14.7,30.06,NW,315,3.0,-999.0,62,0.00,,,0.00,Wunderground v.1.15,2013-01-02 14:05:00,
2013-01-02 09:10:00,26.0,14.8,30.06,NNW,346,4.0,8.0,62,0.00,,,0.00,Wunderground v.1.15,2013-01-02 14:10:00,
2013-01-02 09:15:00,26.0,14.8,30.06,NW,321,6.0,8.0,62,0.00,,,0.00,Wunderground v.1.15,2013-01-02 14:15:00,
2013-01-02 09:20:00,26.1,14.8,30.05,NW,326,6.0,6.0,62,0.00,,,0.00,Wunderground v.1.15,2013-01-02 14:20:00,
2013-01-02 09:25:00,26.2,14.6,30.06,NNW,328,5.0,6.0,61,0.00,,,0.00,Wunderground v.1.15,2013-01-02 14:25:00,
2013-01-02 09:30:00,26.3,14.7,30.06,NW,319,5.0,11.0,61,0.00,,,0.00,Wunderground v.1.15,2013-01-02 14:30:00,
2013-01-02 09:35:00,26.4,14.8,30.06,NW,314,6.0,11.0,61,0.00,,,0.00,Wunderground v.1.15,2013-01-02 14:35:00,
2013-01-02 09:40:00,26.6,15.7,30.06,NNW,338,6.0,-999.0,63,0.00,,,0.00,Wunderground v.1.15,2013-01-02 14:40:00,
2013-01-02 09:45:00,26.7,15.0,30.06,North,351,7.0,12.0,61,0.00,,,0.00,Wunderground v.1.15,2013-01-02 14:45:00,
2013-01-02 09:50:00,26.9,15.2,30.07,NNW,338,8.0,-999.0,61,0.00,,,0.00,Wunderground v.1.15,2013-01-02 14:50:00,
2013-01-02 09:55:00,26.9,14.9,30.07,NW,315,7.0,-999.0,60,0.00,,,0.00,Wunderground v.1.15,2013-01-02 14:55:00,
2013-01-02 10:00:00,27.2,15.9,30.07,NW,315,5.0,-999.0,62,0.00,,,0.00,Wunderground v.1.15,2013-01-02 15:00:00,
2013-01-02 10:05:00,27.1,14.7,30.07,NW,315,7.0,-999.0,59,0.00,,,0.00,Wunderground v.1.15,2013-01-02 15:05:00,
2013-01-02 10:10:00,27.5,15.8,30.07,NW,315,5.0,-999.0,61,0.00,,,0.00,Wunderground v.1.15,2013-01-02 15:10:00,
2013-01-02 10:15:00,27.5,15.0,30.07,NW,315,8.0,-999.0,59,0.00,,,0.00,Wunderground v.1.15,2013-01-02 15:15:00,
2013-01-02 10:20:00,27.8,15.3,30.08,NW,315,7.0,-999.0,59,0.00,,,0.00,Wunderground v.1.15,2013-01-02 15:20:00,
2013-01-02 10:25:00,27.9,15.0,30.08,NW,315,8.0,-999.0,58,0.00,,,0.00,Wunderground v.1.15,2013-01-02 15:25:00,
2013-01-02 10:30:00,28.2,16.1,30.08,NNW,346,8.0,9.0,60,0.00,,,0.00,Wunderground v.1.15,2013-01-02 15:30:00,
2013-01-02 10:35:00,28.2,14.9,30.07,NW,325,9.0,9.0,57,0.00,,,0.00,Wunderground v.1.15,2013-01-02 15:35:00,
2013-01-02 10:45:00,28.6,15.3,30.07,WNW,288,7.0,13.0,57,0.00,,,0.00,Wunderground v.1.15,2013-01-02 15:45:00,
2013-01-02 10:50:00,28.8,15.9,30.06,NW,319,8.0,13.0,58,0.00,,,0.00,Wunderground v.1.15,2013-01-02 15:50:00,
2013-01-02 10:55:00,28.8,15.5,30.06,NNW,335,10.0,10.0,57,0.00,,,0.00,Wunderground v.1.15,2013-01-02 15:55:00,
2013-01-02 11:05:00,29.3,16.3,30.06,NW,319,9.0,11.0,58,0.00,,,0.00,Wunderground v.1.15,2013-01-02 16:05:00,
2013-01-02 11:10:00,29.4,15.6,30.05,NW,323,9.0,9.0,56,0.00,,,0.00,Wunderground v.1.15,2013-01-02 16:10:00,
2013-01-02 11:15:00,29.6,16.2,30.05,NW,309,9.0,11.0,57,0.00,,,0.00,Wunderground v.1.15,2013-01-02 16:15:00,
2013-01-02 11:20:00,29.5,16.1,30.06,NW,317,9.0,9.0,57,0.00,,,0.00,Wunderground v.1.15,2013-01-02 16:20:00,
2013-01-02 11:25:00,29.3,15.1,30.06,NW,316,10.0,10.0,55,0.00,,,0.00,Wunderground v.1.15,2013-01-02 16:25:00,
2013-01-02 11:30:00,29.8,16.8,30.05,NNW,334,8.0,9.0,58,0.00,,,0.00,Wunderground v.1.15,2013-01-02 16:30:00,
2013-01-02 11:40:00,30.1,15.4,30.04,NW,319,8.0,8.0,54,0.00,,,0.00,Wunderground v.1.15,2013-01-02 16:40:00,
2013-01-02 11:45:00,30.3,15.6,30.03,NNW,339,9.0,9.0,54,0.00,,,0.00,Wunderground v.1.15,2013-01-02 16:45:00,
2013-01-02 11:50:00,30.3,16.0,30.03,NW,314,10.0,11.0,55,0.00,,,0.00,Wunderground v.1.15,2013-01-02 16:50:00,
2013-01-02 12:00:00,30.5,16.7,30.03,NNW,337,11.0,11.0,56,0.00,,,0.00,Wunderground v.1.15,2013-01-02 17:00:00,
2013-01-02 12:05:00,31.0,17.1,30.02,NNW,340,10.0,11.0,56,0.00,,,0.00,Wunderground v.1.15,2013-01-02 17:05:00,
2013-01-02 12:15:00,30.9,16.6,30.02,NW,321,9.0,17.0,55,0.00,,,0.00,Wunderground v.1.15,2013-01-02 17:15:00,
2013-01-02 12:20:00,31.0,16.7,30.01,NW,325,10.0,10.0,55,0.00,,,0.00,Wunderground v.1.15,2013-01-02 17:20:00,
2013-01-02 12:30:00,31.3,17.0,30.01,WNW,295,9.0,10.0,55,0.00,,,0.00,Wunderground v.1.15,2013-01-02 17:30:00,
2013-01-02 12:35:00,31.3,16.6,30.01,NW,318,10.0,12.0,54,0.00,,,0.00,Wunderground v.1.15,2013-01-02 17:35:00,
2013-01-02 12:40:00,31.3,16.6,30.01,West,272,9.0,9.0,54,0.00,,,0.00,Wunderground v.1.15,2013-01-02 17:40:00,
2013-01-02 12:45:00,31.3,17.0,30.01,NNW,336,9.0,9.0,55,0.00,,,0.00,Wunderground v.1.15,2013-01-02 17:45:00,
2013-01-02 12:50:00,31.5,17.2,30.01,NW,322,9.0,14.0,55,0.00,,,0.00,Wunderground v.1.15,2013-01-02 17:50:00,
2013-01-02 12:55:00,31.5,16.7,30.01,NNW,328,9.0,14.0,54,0.00,,,0.00,Wunderground v.1.15,2013-01-02 17:55:00,
2013-01-02 13:00:00,31.4,17.5,30.01,NNW,348,10.0,10.0,56,0.00,,,0.00,Wunderground v.1.15,2013-01-02 18:00:00,
2013-01-02 13:05:00,31.6,17.7,30.01,NW,319,9.0,10.0,56,0.00,,,0.00,Wunderground v.1.15,2013-01-02 18:05:00,
2013-01-02 13:15:00,31.9,17.1,30.01,NW,321,8.0,10.0,54,0.00,,,0.00,Wunderground v.1.15,2013-01-02 18:15:00,
2013-01-02 13:25:00,31.9,17.5,30.00,NW,315,9.0,15.0,55,0.00,,,0.00,Wunderground v.1.15,2013-01-02 18:25:00,
2013-01-02 13:30:00,31.9,18.0,30.01,NW,319,9.0,9.0,56,0.00,,,0.00,Wunderground v.1.15,2013-01-02 18:30:00,
2013-01-02 13:35:00,32.1,18.6,30.01,NW,314,9.0,9.0,57,0.00,,,0.00,Wunderground v.1.15,2013-01-02 18:35:00,
2013-01-02 13:40:00,32.2,17.8,30.01,NW,316,9.0,9.0,55,0.00,,,0.00,Wunderground v.1.15,2013-01-02 18:40:00,
2013-01-02 13:45:00,32.1,18.6,30.01,NW,309,10.0,10.0,57,0.00,,,0.00,Wunderground v.1.15,2013-01-02 18:45:00,
2013-01-02 13:50:00,32.2,17.4,30.01,NW,309,9.0,12.0,54,0.00,,,0.00,Wunderground v.1.15,2013-01-02 18:50:00,
2013-01-02 13:55:00,32.5,17.7,30.02,WNW,302,8.0,12.0,54,0.00,,,0.00,Wunderground v.1.15,2013-01-02 18:55:00,
2013-01-02 14:05:00,32.8,18.4,30.02,NNW,339,8.0,8.0,55,0.00,,,0.00,Wunderground v.1.15,2013-01-02 19:05:00,
2013-01-02 14:10:00,33.1,18.2,30.02,NNW,341,8.0,11.0,54,0.00,,,0.00,Wunderground v.1.15,2013-01-02 19:10:00,
2013-01-02 14:15:00,33.0,17.7,30.03,NNW,335,9.0,11.0,53,0.00,,,0.00,Wunderground v.1.15,2013-01-02 19:15:00,
2013-01-02 14:25:00,33.1,18.7,30.02,NW,319,7.0,9.0,55,0.00,,,0.00,Wunderground v.1.15,2013-01-02 19:25:00,
2013-01-02 14:30:00,33.0,18.6,30.02,NNW,340,7.0,9.0,55,0.00,,,0.00,Wunderground v.1.15,2013-01-02 19:30:00,
2013-01-02 14:40:00,33.3,18.4,30.02,NW,319,8.0,8.0,54,0.00,,,0.00,Wunderground v.1.15,2013-01-02 19:40:00,
2013-01-02 14:45:00,33.4,18.1,30.03,NNW,340,6.0,8.0,53,0.00,,,0.00,Wunderground v.1.15,2013-01-02 19:45:00,
2013-01-02 14:50:00,33.3,19.3,30.03,NNW,328,7.0,8.0,56,0.00,,,0.00,Wunderground v.1.15,2013-01-02 19:50:00,
2013-01-02 14:55:00,33.2,18.3,30.03,NNW,328,8.0,9.0,54,0.00,,,0.00,Wunderground v.1.15,2013-01-02 19:55:00,
2013-01-02 15:00:00,33.3,18.4,30.04,NW,316,8.0,8.0,54,0.00,,,0.00,Wunderground v.1.15,2013-01-02 20:00:00,
2013-01-02 15:05:00,33.4,18.9,30.04,NW,319,7.0,8.0,55,0.00,,,0.00,Wunderground v.1.15,2013-01-02 20:05:00,
2013-01-02 15:15:00,33.2,17.9,30.03,NW,319,7.0,10.0,53,0.00,,,0.00,Wunderground v.1.15,2013-01-02 20:15:00,
2013-01-02 15:20:00,33.1,18.2,30.04,NNW,333,8.0,8.0,54,0.00,,,0.00,Wunderground v.1.15,2013-01-02 20:20:00,
2013-01-02 15:25:00,33.2,18.3,30.04,NW,316,8.0,11.0,54,0.00,,,0.00,Wunderground v.1.15,2013-01-02 20:25:00,
2013-01-02 15:35:00,33.0,18.6,30.04,WNW,297,8.0,10.0,55,0.00,,,0.00,Wunderground v.1.15,2013-01-02 20:35:00,
2013-01-02 15:40:00,33.0,18.1,30.04,NW,314,6.0,6.0,54,0.00,,,0.00,Wunderground v.1.15,2013-01-02 20:40:00,
2013-01-02 15:50:00,32.7,18.3,30.04,WNW,288,7.0,7.0,55,0.00,,,0.00,Wunderground v.1.15,2013-01-02 20:50:00,
2013-01-02 15:55:00,32.8,18.4,30.05,NW,316,7.0,7.0,55,0.00,,,0.00,Wunderground v.1.15,2013-01-02 20:55:00,
2013-01-02 16:00:00,32.6,17.8,30.05,WNW,285,6.0,7.0,54,0.00,,,0.00,Wunderground v.1.15,2013-01-02 21:00:00,
2013-01-02 16:05:00,32.4,18.4,30.05,WNW,302,7.0,7.0,56,0.00,,,0.00,Wunderground v.1.15,2013-01-02 21:05:00,
2013-01-02 16:10:00,32.3,17.9,30.05,WNW,288,7.0,7.0,55,0.00,,,0.00,Wunderground v.1.15,2013-01-02 21:10:00,
2013-01-02 16:20:00,32.1,17.7,30.05,WNW,297,6.0,6.0,55,0.00,,,0.00,Wunderground v.1.15,2013-01-02 21:20:00,
2013-01-02 16:25:00,32.1,17.7,30.06,NW,319,6.0,6.0,55,0.00,,,0.00,Wunderground v.1.15,2013-01-02 21:25:00,
2013-01-02 16:30:00,32.0,17.6,30.06,WNW,302,5.0,5.0,55,0.00,,,0.00,Wunderground v.1.15,2013-01-02 21:30:00,
2013-01-02 16:35:00,31.8,17.5,30.06,WNW,296,5.0,5.0,55,0.00,,,0.00,Wunderground v.1.15,2013-01-02 21:35:00,
2013-01-02 16:45:00,31.6,17.7,30.06,NW,322,4.0,6.0,56,0.00,,,0.00,Wunderground v.1.15,2013-01-02 21:45:00,
2013-01-02 16:55:00,31.4,17.5,30.07,WNW,284,3.0,4.0,56,0.00,,,0.00,Wunderground v.1.15,2013-01-02 21:55:00,
2013-01-02 17:00:00,31.2,18.5,30.08,NW,314,3.0,3.0,59,0.00,,,0.00,Wunderground v.1.15,2013-01-02 22:00:00,
2013-01-02 17:05:00,31.1,18.4,30.07,WNW,295,3.0,3.0,59,0.00,,,0.00,Wunderground v.1.15,2013-01-02 22:05:00,
2013-01-02 17:10:00,31.0,18.3,30.08,NW,316,3.0,3.0,59,0.00,,,0.00,Wunderground v.1.15,2013-01-02 22:10:00,
2013-01-02 17:15:00,30.9,18.2,30.08,WNW,294,3.0,3.0,59,0.00,,,0.00,Wunderground v.1.15,2013-01-02 22:15:00,
2013-01-02 17:20:00,30.8,18.5,30.08,NW,311,3.0,3.0,60,0.00,,,0.00,Wunderground v.1.15,2013-01-02 22:20:00,
2013-01-02 17:30:00,30.5,18.3,30.09,WNW,291,2.0,2.0,60,0.00,,,0.00,Wunderground v.1.15,2013-01-02 22:30:00,
2013-01-02 17:35:00,30.4,18.2,30.09,WNW,285,2.0,2.0,60,0.00,,,0.00,Wunderground v.1.15,2013-01-02 22:35:00,
2013-01-02 17:40:00,30.3,18.5,30.09,WNW,282,2.0,2.0,61,0.00,,,0.00,Wunderground v.1.15,2013-01-02 22:40:00,
2013-01-02 17:45:00,30.1,18.3,30.10,WNW,297,1.0,2.0,61,0.00,,,0.00,Wunderground v.1.15,2013-01-02 22:45:00,
2013-01-02 17:55:00,30.0,18.2,30.10,WNW,283,1.0,1.0,61,0.00,,,0.00,Wunderground v.1.15,2013-01-02 22:55:00,
2013-01-02 18:00:00,29.9,18.1,30.10,NW,305,1.0,4.0,61,0.00,,,0.00,Wunderground v.1.15,2013-01-02 23:00:00,
2013-01-02 18:05:00,29.9,17.7,30.10,WNW,285,1.0,4.0,60,0.00,,,0.00,Wunderground v.1.15,2013-01-02 23:05:00,
2013-01-02 18:10:00,29.8,17.6,30.10,West,273,2.0,2.0,60,0.00,,,0.00,Wunderground v.1.15,2013-01-02 23:10:00,
2013-01-02 18:15:00,29.7,17.5,30.10,West,262,1.0,2.0,60,0.00,,,0.00,Wunderground v.1.15,2013-01-02 23:15:00,
2013-01-02 18:20:00,29.5,17.7,30.11,West,262,1.0,1.0,61,0.00,,,0.00,Wunderground v.1.15,2013-01-02 23:20:00,
2013-01-02 18:25:00,29.3,17.5,30.11,West,271,1.0,2.0,61,0.00,,,0.00,Wunderground v.1.15,2013-01-02 23:25:00,
2013-01-02 18:35:00,29.1,17.7,30.11,West,260,1.0,1.0,62,0.00,,,0.00,Wunderground v.1.15,2013-01-02 23:35:00,
2013-01-02 18:40:00,28.9,17.9,30.11,WSW,243,1.0,2.0,63,0.00,,,0.00,Wunderground v.1.15,2013-01-02 23:40:00,
2013-01-02 18:45:00,28.8,17.4,30.11,WNW,291,0.0,2.0,62,0.00,,,0.00,Wunderground v.1.15,2013-01-02 23:45:00,
2013-01-02 18:50:00,28.7,17.7,30.11,WNW,284,1.0,1.0,63,0.00,,,0.00,Wunderground v.1.15,2013-01-02 23:50:00,
2013-01-02 19:00:00,28.3,18.0,30.12,WNW,285,0.0,0.0,65,0.00,,,0.00,Wunderground v.1.15,2013-01-03 00:00:00,
2013-01-02 19:10:00,28.1,17.8,30.12,WNW,288,0.0,0.0,65,0.00,,,0.00,Wunderground v.1.15,2013-01-03 00:10:00,
2013-01-02 19:15:00,28.1,17.8,30.12,SW,226,0.0,0.0,65,0.00,,,0.00,Wunderground v.1.15,2013-01-03 00:15:00,
2013-01-02 19:20:00,28.0,17.7,30.12,NW,309,0.0,0.0,65,0.00,,,0.00,Wunderground v.1.15,2013-01-03 00:20:00,
2013-01-02 19:25:00,28.0,17.7,30.13,West,281,0.0,0.0,65,0.00,,,0.00,Wunderground v.1.15,2013-01-03 00:25:00,
2013-01-02 19:30:00,28.1,17.5,30.12,West,269,0.0,0.0,64,0.00,,,0.00,Wunderground v.1.15,2013-01-03 00:30:00,
2013-01-02 19:40:00,28.2,17.6,30.13,West,269,1.0,1.0,64,0.00,,,0.00,Wunderground v.1.15,2013-01-03 00:40:00,
2013-01-02 19:45:00,28.1,17.8,30.13,West,277,1.0,1.0,65,0.00,,,0.00,Wunderground v.1.15,2013-01-03 00:45:00,
2013-01-02 19:50:00,28.1,17.5,30.12,West,276,0.0,1.0,64,0.00,,,0.00,Wunderground v.1.15,2013-01-03 00:50:00,
2013-01-02 19:55:00,28.1,17.8,30.12,WNW,288,1.0,1.0,65,0.00,,,0.00,Wunderground v.1.15,2013-01-03 00:55:00,
2013-01-02 20:05:00,28.0,17.7,30.12,West,281,1.0,1.0,65,0.00,,,0.00,Wunderground v.1.15,2013-01-03 01:05:00,
2013-01-02 20:10:00,27.8,17.6,30.12,WNW,294,0.0,0.0,65,0.00,,,0.00,Wunderground v.1.15,2013-01-03 01:10:00,
2013-01-02 20:20:00,27.4,17.9,30.11,WNW,294,0.0,0.0,67,0.00,,,0.00,Wunderground v.1.15,2013-01-03 01:20:00,
2013-01-02 20:25:00,27.3,17.8,30.12,WNW,284,0.0,0.0,67,0.00,,,0.00,Wunderground v.1.15,2013-01-03 01:25:00,
2013-01-02 20:30:00,27.3,17.8,30.12,West,276,0.0,1.0,67,0.00,,,0.00,Wunderground v.1.15,2013-01-03 01:30:00,
2013-01-02 20:35:00,27.6,18.1,30.12,WNW,285,1.0,2.0,67,0.00,,,0.00,Wunderground v.1.15,2013-01-03 01:35:00,
2013-01-02 20:40:00,27.7,17.8,30.12,NNW,329,2.0,2.0,66,0.00,,,0.00,Wunderground v.1.15,2013-01-03 01:40:00,
2013-01-02 20:45:00,27.8,17.6,30.13,WNW,285,2.0,2.0,65,0.00,,,0.00,Wunderground v.1.15,2013-01-03 01:45:00,
2013-01-02 20:50:00,27.8,17.9,30.13,West,269,2.0,3.0,66,0.00,,,0.00,Wunderground v.1.15,2013-01-03 01:50:00,
2013-01-02 20:55:00,27.8,17.9,30.13,WNW,294,2.0,3.0,66,0.00,,,0.00,Wunderground v.1.15,2013-01-03 01:55:00,
2013-01-02 21:05:00,28.0,18.1,30.13,WNW,302,3.0,3.0,66,0.00,,,0.00,Wunderground v.1.15,2013-01-03 02:05:00,
2013-01-02 21:10:00,28.0,18.1,30.13,West,274,3.0,3.0,66,0.00,,,0.00,Wunderground v.1.15,2013-01-03 02:10:00,
2013-01-02 21:15:00,27.9,18.0,30.14,West,276,2.0,3.0,66,0.00,,,0.00,Wunderground v.1.15,2013-01-03 02:15:00,
2013-01-02 21:20:00,27.8,17.6,30.13,WNW,291,2.0,5.0,65,0.00,,,0.00,Wunderground v.1.15,2013-01-03 02:20:00,
2013-01-02 21:30:00,28.0,18.8,30.13,WNW,291,3.0,3.0,68,0.00,,,0.00,Wunderground v.1.15,2013-01-03 02:30:00,
2013-01-02 21:35:00,27.9,18.4,30.14,WNW,285,2.0,3.0,67,0.00,,,0.00,Wunderground v.1.15,2013-01-03 02:35:00,
2013-01-02 21:40:00,27.8,18.3,30.13,WNW,298,2.0,3.0,67,0.00,,,0.00,Wunderground v.1.15,2013-01-03 02:40:00,
2013-01-02 21:45:00,27.8,18.6,30.14,WNW,291,2.0,3.0,68,0.00,,,0.00,Wunderground v.1.15,2013-01-03 02:45:00,
2013-01-02 21:50:00,27.7,18.5,30.14,NW,314,2.0,2.0,68,0.00,,,0.00,Wunderground v.1.15,2013-01-03 02:50:00,
2013-01-02 22:00:00,27.8,18.3,30.14,WNW,291,3.0,3.0,67,0.00,,,0.00,Wunderground v.1.15,2013-01-03 03:00:00,
2013-01-02 22:10:00,27.8,18.9,30.14,West,273,3.0,3.0,69,0.00,,,0.00,Wunderground v.1.15,2013-01-03 03:10:00,
2013-01-02 22:15:00,27.7,18.2,30.14,WNW,288,3.0,3.0,67,0.00,,,0.00,Wunderground v.1.15,2013-01-03 03:15:00,
2013-01-02 22:20:00,27.7,18.2,30.14,WSW,257,3.0,3.0,67,0.00,,,0.00,Wunderground v.1.15,2013-01-03 03:20:00,
2013-01-02 22:25:00,27.7,18.5,30.14,WNW,294,3.0,4.0,68,0.00,,,0.00,Wunderground v.1.15,2013-01-03 03:25:00,
2013-01-02 22:40:00,27.7,18.5,30.15,WNW,291,4.0,4.0,68,0.00,,,0.00,Wunderground v.1.15,2013-01-03 03:40:00,
2013-01-02 22:45:00,27.7,18.2,30.15,WNW,294,3.0,4.0,67,0.00,,,0.00,Wunderground v.1.15,2013-01-03 03:45:00,
2013-01-02 22:55:00,27.7,18.2,30.15,West,277,4.0,4.0,67,0.00,,,0.00,Wunderground v.1.15,2013-01-03 03:55:00,
2013-01-02 23:00:00,27.7,18.5,30.15,NNW,340,4.0,6.0,68,0.00,,,0.00,Wunderground v.1.15,2013-01-03 04:00:00,
2013-01-02 23:05:00,27.7,18.5,30.15,NW,314,5.0,6.0,68,0.00,,,0.00,Wunderground v.1.15,2013-01-03 04:05:00,
2013-01-02 23:15:00,27.7,18.2,30.16,WNW,297,5.0,5.0,67,0.00,,,0.00,Wunderground v.1.15,2013-01-03 04:15:00,
2013-01-02 23:20:00,27.8,18.6,30.16,NW,319,4.0,5.0,68,0.00,,,0.00,Wunderground v.1.15,2013-01-03 04:20:00,
2013-01-02 23:25:00,27.7,18.2,30.16,NW,319,5.0,5.0,67,0.00,,,0.00,Wunderground v.1.15,2013-01-03 04:25:00,
2013-01-02 23:30:00,27.7,18.5,30.16,NW,324,5.0,5.0,68,0.00,,,0.00,Wunderground v.1.15,2013-01-03 04:30:00,
2013-01-02 23:35:00,27.7,18.2,30.16,WNW,291,4.0,5.0,67,0.00,,,0.00,Wunderground v.1.15,2013-01-03 04:35:00,
2013-01-02 23:40:00,27.6,18.4,30.16,NW,305,3.0,3.0,68,0.00,,,0.00,Wunderground v.1.15,2013-01-03 04:40:00,
2013-01-02 23:50:00,27.5,18.3,30.16,NW,316,4.0,4.0,68,0.00,,,0.00,Wunderground v.1.15,2013-01-03 04:50:00,
2013-01-02 23:55:00,27.5,18.0,30.16,NW,310,4.0,4.0,67,0.00,,,0.00,Wunderground v.1.15,2013-01-03 04:55:00,